Starlink 32005

operational
NORAD ID: 60034 Int'l Des: 2024-111 Owner: SPXS Country: US Constellation: starlink
LEOCIRCULAR

Starlink 32005について

説明を読み込み中...

リアルタイム位置

3D地球を読み込み中...

次回通過

高度履歴

Altitude vs Time

uPlot chart will show altitude changes over time

軌道要素

1 60034U 24111U 25307.69218811 .00001327 00000-0 56950-4 0 9997
2 60034 53.1605 300.8045 0001299 89.9496 270.1653 15.30191031 79645
Epoch: Nov 3, 2025 • Age: 13 hours

現在のステータス

高度 476.0 km
速度 7.63 km/s
衛星直下点 27.44°N, 34.98°W
打ち上げ日 Jun 8, 2024
運用期間 1.4 years
タイプ internet

技術仕様

分類 Payload
質量 730.00 kg
乾燥質量 700.00 kg
総質量 730.00 kg
長さ 0.30 m
直径 4.10 m
スパン 29.00 m
形状 Box + pan
製造者 SPXS
バスタイプ Starlink V2M
フェーズステータス In Orbit
所有者/国 SPXS/US

大規模コンステレーション

Loading constellations...